Wind_Speed
24 24 25 24 24 25 24 24 24 23 23 23 24 24 24 25 25 25 26 27 28 28 28 27 26 25 24 23 23 23 22 21 20 19 19 19 19 18 18 18 17 17 16
24 25 25 24 24 24 24 23 23 23 22 22 22 23 23 23 24 24 25 26 26 28 29 29 28 28 27 26 26 26 26 25 24 24 22 21 21 20 21 20 19 19 19
24 25 25 24 23 22 22 21 21 20 21 20 20 20 19 20 21 22 23 24 25 26 28 30 29 28 29 29 29 28 28 29 28 27 26 25 24 23 23 23 22 21 21
26 25 25 24 22 21 20 20 19 18 17 17 17 17 17 17 18 20 20 21 23 24 26 27 29 29 30 30 31 31 31 31 31 30 29 28 27 26 26 25 25 23 23
26 25 24 23 21 20 19 18 17 16 16 16 15 16 16 16 17 18 19 20 21 22 24 25 26 27 29 30 32 32 32 32 32 32 31 31 30 29 29 28 27 26 25
26 25 24 23 21 20 19 18 17 16 16 16 16 16 16 16 17 17 18 19 20 21 21 23 25 26 28 29 30 31 33 33 33 33 34 33 32 31 31 30 30 29 27
27 26 24 23 22 21 20 19 18 18 17 17 16 16 16 16 16 16 17 18 18 19 20 22 24 24 26 29 29 30 32 32 33 33 34 34 33 33 32 31 31 30 30
28 27 25 24 23 22 21 20 20 19 19 18 17 17 16 16 16 16 17 17 18 19 20 21 22 24 25 26 28 29 30 31 31 32 33 33 33 33 33 32 32 32 31
28 27 26 25 24 23 22 22 22 21 20 20 19 18 17 17 18 18 17 17 18 19 19 21 22 23 24 25 27 29 29 31 31 31 32 33 33 33 33 33 33 33 33
27 28 28 27 26 25 25 24 24 23 22 22 21 20 19 19 19 19 20 19 19 19 20 20 21 22 23 24 25 27 28 29 30 30 30 32 33 34 34 34 33 33 34
30 30 30 29 28 28 27 27 26 26 25 24 24 23 22 21 20 19 20 22 21 20 21 21 21 21 21 22 23 25 27 28 29 30 30 31 32 34 34 33 33 33 34
34 33 33 32 31 30 30 30 29 29 28 28 27 26 25 24 24 22 21 22 22 22 22 22 22 21 21 21 22 24 25 26 28 29 30 30 31 32 32 33 34 34 34
39 39 37 36 35 34 33 33 33 32 32 31 30 29 28 28 27 25 24 23 22 23 23 23 22 22 21 21 22 23 24 25 27 28 28 29 30 31 32 32 32 33 33
44 44 43 41 40 39 38 38 37 36 36 35 34 33 32 31 29 28 27 25 24 23 23 23 22 22 21 21 21 22 23 24 25 26 26 27 28 29 30 31 31 32 31
49 49 48 47 46 45 44 42 41 40 40 38 37 36 34 33 32 31 30 28 26 24 24 24 23 22 22 21 21 21 21 22 23 24 25 25 27 27 27 29 30 30 30
54 53 53 52 51 50 49 48 47 45 44 42 41 39 38 36 35 33 32 30 28 26 24 24 24 23 22 22 21 21 21 21 22 23 24 25 25 26 26 27 28 28 29
59 58 57 57 56 55 54 53 51 50 48 46 44 43 41 39 37 35 33 32 30 28 26 25 25 24 23 22 21 21 21 21 21 22 23 24 25 25 25 26 27 28 28
63 62 62 62 61 59 58 57 55 53 51 49 47 45 43 41 39 37 35 33 32 30 28 26 25 24 24 23 21 21 21 22 22 22 23 23 24 24 25 24 25 27 27
66 66 66 65 65 64 63 62 59 57 55 53 51 48 46 44 41 39 37 35 33 31 29 27 26 25 24 22 22 21 21 21 22 22 22 23 23 24 24 24 24 25 26
65 65 67 67 68 68 67 65 63 61 58 56 54 52 49 46 43 41 39 36 34 32 30 28 26 25 24 22 21 22 21 22 22 22 22 22 23 24 24 24 24 24 24
62 63 64 66 67 68 69 69 67 65 62 59 56 54 52 49 46 42 40 38 36 33 31 29 27 26 24 22 22 22 22 21 21 21 22 21 22 23 23 23 23 22 23
53 54 56 59 61 62 64 66 67 67 65 63 60 57 54 51 48 45 41 39 37 34 32 30 28 26 24 23 22 22 21 21 20 21 22 21 21 21 21 22 22 22 22
42 43 45 47 50 53 56 59 61 63 64 64 62 60 57 54 50 47 43 40 38 35 33 31 28 26 24 22 22 22 21 21 21 21 22 21 21 20 20 20 20 20 21
34 34 36 37 40 42 46 50 53 57 58 60 61 60 59 56 53 49 45 41 39 36 34 32 29 27 24 23 22 21 21 22 22 22 21 21 21 20 19 19 19 19 20
29 29 28 30 32 34 37 40 44 48 51 54 56 56 57 57 54 51 47 43 40 38 35 32 29 27 25 23 21 20 20 21 21 22 21 21 20 20 20 20 19 19 20
28 28 27 26 27 28 30 33 36 40 43 47 50 52 53 54 53 51 47 43 40 38 35 32 29 27 25 23 22 21 21 21 21 21 20 20 20 19 20 20 19 19 18
Wind_Direction
294 293 291 286 284 283 282 281 280 279 278 277 273 269 268 267 266 265 262 258 258 258 258 257 256 254 251 249 250 250 250 250 250 251 252 250 250 252 249 247 246 245 245
289 287 287 287 284 282 281 279 277 276 276 275 273 272 272 272 271 268 263 261 261 260 258 256 254 253 252 251 252 251 250 250 249 250 250 250 250 251 248 246 246 245 244
288 286 287 287 285 282 280 278 276 275 274 273 272 273 274 275 275 271 267 263 262 260 259 256 253 253 253 253 252 251 250 249 249 249 249 249 249 249 247 245 246 246 245
288 288 287 288 288 285 282 279 277 275 276 275 274 274 276 277 277 276 271 267 264 262 260 257 255 256 254 254 254 252 251 249 248 248 248 246 246 248 246 244 244 246 245
289 290 288 287 287 285 282 279 277 277 277 278 280 280 280 280 283 281 274 269 268 265 262 259 258 257 256 255 255 253 251 250 249 248 247 246 244 247 245 244 243 244 244
290 290 288 285 283 281 279 277 275 275 274 277 279 281 281 284 286 285 280 276 273 270 266 262 261 259 258 255 255 252 251 251 250 247 245 245 245 245 244 244 243 242 242
288 288 285 283 280 277 275 274 273 272 273 275 278 279 281 283 286 288 285 281 278 274 271 267 263 264 262 256 255 253 250 250 250 247 244 244 243 242 242 242 241 241 242
285 286 282 281 277 274 272 271 271 271 272 273 275 278 282 284 285 287 288 286 284 280 277 272 267 267 265 259 253 252 250 250 248 246 243 242 239 239 239 241 242 242 242
282 280 281 279 275 271 270 269 268 269 270 271 273 275 277 282 286 287 289 290 288 284 281 278 274 271 266 262 256 253 254 252 248 244 243 241 239 239 241 241 241 241 241
280 278 279 278 274 269 268 268 267 267 269 271 273 274 276 278 281 285 288 289 289 287 284 282 278 274 269 264 260 257 256 253 248 243 242 241 239 240 242 241 241 241 242
277 275 276 275 272 268 266 266 265 265 266 269 271 273 276 278 279 280 283 286 288 287 286 285 283 277 272 269 264 260 257 253 248 244 242 241 240 240 240 240 239 240 242
276 274 272 271 270 267 265 264 264 264 265 267 269 271 274 277 280 281 282 283 286 287 287 286 287 283 276 271 264 260 258 256 250 245 243 243 242 241 239 238 239 240 242
275 273 272 269 267 265 264 263 262 263 264 265 267 269 271 274 278 281 282 283 284 286 287 285 285 284 280 274 266 262 259 254 250 248 245 244 243 241 239 239 239 241 241
273 271 271 268 265 263 262 261 260 261 262 264 265 266 269 272 275 278 280 282 282 284 285 284 284 283 282 276 269 265 260 257 252 250 247 244 243 241 240 240 240 241 241
271 269 268 267 265 263 261 260 259 259 260 261 262 264 266 268 272 275 277 278 279 281 282 281 281 281 279 276 269 265 261 256 253 250 246 243 240 239 239 239 239 239 240
270 269 267 265 264 262 261 260 259 258 258 258 259 261 262 265 268 271 274 275 275 277 277 278 279 278 277 273 268 263 261 257 252 248 245 243 240 238 239 240 239 238 238
270 268 266 265 263 262 261 260 259 258 257 256 256 257 259 261 263 267 269 271 273 273 273 275 276 276 275 272 267 262 257 252 250 247 244 242 239 238 239 240 240 239 238
268 267 266 264 262 261 260 258 258 257 256 256 256 256 256 257 260 263 265 267 269 271 271 272 273 273 273 272 268 264 257 251 248 245 243 241 239 238 238 240 240 238 238
267 265 264 263 261 260 259 257 256 255 255 254 254 254 254 255 257 258 260 262 264 267 268 269 270 271 271 269 267 264 258 251 246 244 242 240 238 238 238 239 241 240 239
267 265 263 262 260 259 258 256 255 253 252 252 252 252 252 253 253 254 256 257 259 262 265 266 267 268 269 268 266 261 256 250 246 242 242 241 239 238 238 238 240 240 239
268 265 263 261 259 258 257 255 254 252 250 250 250 249 250 250 250 251 252 253 255 259 262 262 264 265 266 264 263 258 253 249 244 241 240 240 239 239 238 239 240 242 240
271 268 265 261 259 257 256 254 252 250 249 247 247 247 247 246 247 248 249 249 251 254 257 259 260 261 261 260 258 255 250 245 243 239 238 239 240 240 241 239 239 240 240
272 270 267 263 260 258 256 253 251 249 247 246 244 243 243 242 243 244 245 246 247 249 252 254 255 257 257 255 253 250 246 242 241 238 236 236 237 239 239 237 238 240 239
275 273 270 266 263 260 258 255 252 249 246 244 242 240 239 239 239 240 241 242 243 245 247 249 251 252 251 249 248 248 244 240 239 237 236 236 236 237 237 237 239 239 237
274 274 273 269 266 263 259 256 252 248 245 242 240 238 236 235 235 236 237 238 239 242 243 244 245 246 246 245 244 244 240 238 236 234 233 234 235 238 239 239 240 239 237
273 272 272 272 270 267 263 258 252 247 242 238 235 233 232 230 230 231 233 233 235 237 238 238 238 239 240 240 239 236 234 234 232 233 233 233 233 236 237 236 234 233 232
Height
5870 5868 5866 5865 5864 5863 5862 5861 5860 5859 5858 5857 5856 5855 5855 5855 5854 5855 5855 5855 5856 5857 5858 5859 5860 5861 5863 5864 5865 5867 5868 5869 5871 5872 5873 5875 5876 5877 5879 5880 5881 5883 5884
5865 5863 5861 5860 5858 5857 5856 5855 5855 5854 5853 5851 5850 5850 5849 5848 5848 5849 5849 5849 5850 5850 5851 5851 5852 5854 5855 5857 5859 5861 5862 5864 5865 5867 5868 5870 5871 5873 5874 5876 5878 5879 5880
5858 5857 5855 5853 5851 5850 5850 5849 5849 5848 5847 5846 5845 5845 5844 5843 5843 5842 5842 5843 5843 5843 5844 5844 5845 5847 5849 5850 5851 5853 5855 5857 5859 5861 5862 5864 5866 5868 5869 5871 5873 5875 5876
5851 5850 5848 5846 5845 5844 5844 5844 5843 5842 5842 5841 5841 5840 5839 5839 5838 5837 5836 5836 5837 5837 5837 5837 5838 5839 5841 5842 5844 5846 5847 5850 5851 5854 5856 5858 5860 5862 5864 5866 5868 5870 5872
5844 5843 5842 5841 5840 5839 5839 5838 5838 5837 5837 5837 5836 5836 5835 5834 5833 5832 5831 5830 5830 5831 5831 5831 5831 5832 5833 5834 5835 5837 5840 5842 5844 5846 5849 5851 5853 5856 5858 5860 5862 5864 5867
5837 5836 5836 5835 5834 5834 5833 5833 5833 5833 5832 5832 5832 5831 5830 5829 5828 5826 5825 5825 5824 5824 5824 5824 5824 5825 5826 5827 5828 5829 5832 5834 5836 5838 5841 5843 5846 5848 5851 5853 5856 5858 5861
5830 5830 5829 5829 5829 5828 5828 5828 5828 5828 5828 5827 5827 5827 5826 5825 5823 5822 5820 5819 5819 5818 5818 5818 5818 5818 5819 5820 5821 5822 5824 5826 5828 5830 5833 5836 5838 5841 5844 5846 5849 5852 5854
5824 5824 5823 5822 5822 5822 5822 5823 5823 5822 5822 5822 5822 5822 5821 5821 5819 5817 5816 5814 5813 5812 5812 5811 5811 5812 5812 5812 5814 5815 5816 5818 5820 5823 5825 5828 5831 5834 5837 5839 5842 5845 5848
5817 5817 5816 5816 5816 5816 5816 5816 5817 5817 5816 5816 5817 5817 5816 5816 5814 5813 5811 5809 5808 5807 5806 5805 5805 5805 5805 5805 5806 5807 5808 5810 5812 5815 5818 5821 5824 5827 5830 5832 5835 5838 5841
5810 5809 5809 5809 5809 5809 5809 5809 5809 5810 5810 5810 5810 5810 5810 5810 5809 5808 5806 5804 5803 5801 5800 5799 5799 5798 5798 5799 5799 5800 5801 5802 5804 5807 5810 5813 5816 5819 5822 5825 5828 5831 5833
5802 5802 5801 5801 5801 5801 5801 5801 5802 5802 5803 5803 5803 5803 5803 5803 5803 5803 5801 5799 5797 5796 5795 5794 5793 5792 5792 5792 5793 5793 5794 5795 5797 5800 5803 5805 5808 5811 5814 5817 5820 5823 5826
5793 5793 5792 5792 5792 5792 5792 5792 5793 5794 5795 5795 5795 5796 5796 5796 5796 5796 5795 5794 5792 5790 5789 5788 5787 5786 5786 5786 5787 5787 5788 5789 5790 5793 5796 5798 5801 5803 5806 5809 5812 5815 5819
5782 5782 5782 5782 5782 5782 5782 5783 5783 5784 5785 5786 5787 5787 5788 5788 5788 5788 5788 5787 5786 5785 5783 5782 5781 5781 5780 5780 5780 5780 5781 5783 5784 5786 5788 5791 5793 5796 5799 5802 5805 5808 5811
5770 5769 5769 5769 5770 5771 5771 5772 5773 5774 5775 5776 5777 5778 5779 5780 5780 5780 5780 5780 5780 5779 5777 5776 5775 5775 5774 5774 5774 5774 5775 5776 5777 5779 5781 5784 5786 5789 5792 5795 5798 5801 5804
5755 5755 5755 5756 5756 5757 5758 5759 5761 5762 5764 5765 5767 5768 5769 5770 5771 5772 5772 5772 5773 5772 5771 5770 5769 5769 5768 5768 5768 5768 5769 5770 5771 5773 5775 5777 5780 5782 5785 5788 5791 5794 5796
5738 5739 5740 5741 5741 5742 5744 5745 5747 5749 5751 5753 5755 5757 5759 5761 5762 5763 5763 5764 5764 5765 5765 5764 5763 5763 5762 5762 5762 5762 5763 5764 5765 5767 5769 5771 5773 5776 5779 5781 5784 5787 5790
5719 5720 5721 5723 5724 5726 5728 5730 5732 5735 5738 5740 5743 5745 5748 5750 5752 5753 5754 5755 5756 5756 5757 5757 5756 5756 5756 5755 5755 5756 5757 5758 5759 5761 5763 5765 5767 5769 5772 5775 5777 5780 5783
5699 5699 5701 5703 5705 5707 5710 5712 5716 5719 5722 5726 5729 5732 5736 5738 5741 5743 5745 5746 5747 5748 5749 5750 5749 5749 5749 5749 5749 5750 5750 5752 5753 5755 5757 5759 5761 5763 5766 5768 5771 5773 5776
5676 5677 5679 5680 5683 5686 5690 5693 5697 5702 5706 5710 5714 5718 5722 5726 5730 5732 5735 5737 5738 5740 5741 5742 5742 5742 5742 5742 5743 5743 5744 5745 5747 5749 5751 5753 5755 5757 5760 5762 5764 5767 5769
5652 5654 5655 5657 5660 5663 5668 5672 5677 5683 5688 5693 5698 5704 5709 5713 5717 5721 5724 5727 5729 5731 5732 5734 5734 5735 5735 5735 5736 5737 5738 5739 5741 5743 5745 5747 5749 5751 5753 5756 5758 5760 5762
5628 5629 5631 5634 5636 5640 5644 5649 5655 5662 5669 5675 5681 5687 5694 5699 5704 5709 5713 5716 5719 5722 5724 5725 5727 5727 5728 5729 5730 5731 5732 5733 5735 5737 5739 5741 5743 5745 5747 5750 5752 5754 5756
5606 5607 5609 5611 5613 5617 5621 5626 5632 5639 5647 5655 5663 5670 5677 5684 5691 5696 5701 5706 5709 5712 5715 5717 5719 5720 5721 5722 5723 5724 5726 5728 5729 5732 5733 5736 5738 5740 5741 5744 5746 5748 5750
5589 5589 5590 5591 5593 5596 5599 5604 5610 5617 5626 5634 5643 5652 5660 5669 5676 5683 5689 5694 5699 5702 5706 5709 5711 5713 5714 5715 5716 5718 5719 5721 5724 5726 5728 5730 5732 5734 5736 5738 5740 5742 5745
5576 5576 5575 5576 5577 5579 5581 5585 5590 5597 5605 5614 5623 5633 5643 5652 5661 5669 5676 5682 5688 5692 5696 5700 5703 5705 5707 5708 5710 5711 5712 5715 5717 5720 5723 5725 5727 5729 5731 5733 5735 5737 5739
5566 5565 5564 5564 5565 5566 5567 5570 5573 5579 5586 5595 5604 5615 5625 5636 5646 5655 5663 5671 5677 5682 5686 5691 5694 5697 5699 5701 5703 5705 5707 5709 5711 5714 5717 5720 5722 5724 5726 5728 5730 5732 5734
5556 5556 5555 5555 5555 5555 5555 5557 5559 5564 5571 5579 5588 5598 5609 5620 5630 5640 5650 5658 5666 5672 5677 5682 5685 5689 5691 5693 5696 5699 5701 5704 5706 5709 5712 5714 5716 5719 5721 5723 5725 5727 5729